This is the latest recevied weather packets stored in our database for station/object JA6CFI-13. If no packets are shown the sender has not sent any weather packets the latest 10 day(s).
| Time | Temp. | Humidity | Pressure | Rain* | Wind** | Luminosity | Snow |
|---|---|---|---|---|---|---|---|
| 1777800381 | 17.22° C | 96% | 1002.5 hPa | 0.76 mm | - | - | - |
| 1777799601 | 17.22° C | 96% | 1002.2 hPa | 0.76 mm | - | - | - |
| 1777799522 | 17.22° C | 96% | 1002.2 hPa | 0.76 mm | - | - | - |
| 1777798820 | 17.78° C | 96% | 1002 hPa | 0.51 mm | - | - | - |
| 1777798040 | 17.78° C | 96% | 1001.9 hPa | 0.76 mm | - | - | - |
| 1777797261 | 18.33° C | 96% | 1001.6 hPa | 0.76 mm | - | - | - |
| 1777796481 | 18.33° C | 96% | 1001.6 hPa | 0.51 mm | - | - | - |
| 1777795700 | 18.33° C | 96% | 1001.5 hPa | 0.76 mm | - | - | - |
| 1777794920 | 18.89° C | 96% | 1001.3 hPa | 1.27 mm | - | - | - |
| 1777794139 | 18.89° C | 96% | 1000.9 hPa | 1.27 mm | - | - | - |
| 1777793361 | 18.89° C | 96% | 1000.8 hPa | 2.54 mm | - | - | - |
| 1777792580 | 18.89° C | 96% | 1000.9 hPa | 3.56 mm | - | - | - |
| 1777791800 | 19.44° C | 96% | 1001 hPa | 4.57 mm | - | - | - |
| 1777791021 | 19.44° C | 96% | 1000.7 hPa | 5.84 mm | - | - | - |
| 1777790240 | 19.44° C | 96% | 1000.6 hPa | 6.86 mm | - | - | - |
| 1777789460 | 20° C | 96% | 1000.7 hPa | 8.13 mm | - | - | - |
| 1777788680 | 20° C | 96% | 1001 hPa | 9.14 mm | - | - | - |
| 1777787901 | 20° C | 96% | 1001 hPa | 8.38 mm | - | - | - |
| 1777787120 | 20° C | 95% | 1001.1 hPa | 6.6 mm | - | - | - |
| 1777786923 | 20° C | 95% | 1001 hPa | 6.6 mm | - | - | - |
| 1777786341 | 20° C | 95% | 1000.9 hPa | 5.33 mm | - | - | - |
| 1777785560 | 20° C | 95% | 1000.7 hPa | 3.56 mm | - | - | - |
| 1777785123 | 20° C | 94% | 1000.6 hPa | 2.54 mm | - | - | - |
| 1777784780 | 20° C | 94% | 1000.2 hPa | 2.03 mm | - | - | - |
| 1777784001 | 20° C | 95% | 1000 hPa | 2.29 mm | - | - | - |
* Rain latest hour (hover to see other rain measurements)
** Current wind speed in m/s (hover to see current wind gust speed)